SWA2329 KDEN-KSAN

Flight info

Callsign SWA2329
Flight time 1h 57m
Altitude 32000
Route BAYLR6 TEHRU PLNDL Q86 TTRUE LUCKI1
Aircraft B38M/M-SDE1FGHILORVWXY/HB1

Departure

Time 2026-05-06 03:44
Airport Denver International Airport (KDEN)

Arrival

Time 2026-05-06 05:42
Airport San Diego International Airport (KSAN)
Time Latitude Longitude Altitude Speed Heading
2026-05-06 03:17 39.86231 -104.67311 5379 ft 0 kts 19°
2026-05-06 03:22 39.86209 -104.67317 5374 ft 4 kts 356°
2026-05-06 03:23 39.86187 -104.67305 5377 ft 4 kts 306°
2026-05-06 03:23 39.86176 -104.67274 5377 ft 4 kts 287°
2026-05-06 03:23 39.86166 -104.67244 5374 ft 3 kts 314°
2026-05-06 03:23 39.86164 -104.67240 5376 ft 0 kts 318°
2026-05-06 03:25 39.86166 -104.67243 5374 ft 2 kts 314°
2026-05-06 03:26 39.86163 -104.67291 5378 ft 10 kts 239°
2026-05-06 03:26 39.86132 -104.67390 5378 ft 13 kts 266°
2026-05-06 03:26 39.86129 -104.67505 5380 ft 13 kts 269°
2026-05-06 03:26 39.86127 -104.67621 5380 ft 13 kts 269°
2026-05-06 03:27 39.86125 -104.67740 5378 ft 13 kts 268°
2026-05-06 03:27 39.86133 -104.67857 5380 ft 13 kts 281°
2026-05-06 03:27 39.86178 -104.67954 5375 ft 12 kts 311°
2026-05-06 03:27 39.86201 -104.68063 5377 ft 12 kts 265°
2026-05-06 03:28 39.86201 -104.68086 5376 ft 0 kts 269°
2026-05-06 03:37 39.86199 -104.68109 5376 ft 6 kts 255°
2026-05-06 03:37 39.86158 -104.68174 5374 ft 11 kts 228°
2026-05-06 03:38 39.86137 -104.68273 5371 ft 12 kts 264°
2026-05-06 03:38 39.86114 -104.68379 5371 ft 13 kts 214°
2026-05-06 03:38 39.86029 -104.68392 5372 ft 12 kts 181°
2026-05-06 03:38 39.85948 -104.68394 5373 ft 12 kts 180°
2026-05-06 03:39 39.85865 -104.68394 5375 ft 12 kts 179°
2026-05-06 03:39 39.85781 -104.68393 5373 ft 12 kts 181°
2026-05-06 03:39 39.85697 -104.68394 5375 ft 12 kts 180°
2026-05-06 03:39 39.85622 -104.68394 5377 ft 10 kts 179°
2026-05-06 03:40 39.85565 -104.68393 5378 ft 7 kts 179°
2026-05-06 03:40 39.85517 -104.68398 5382 ft 9 kts 186°
2026-05-06 03:40 39.85425 -104.68402 5383 ft 17 kts 181°
2026-05-06 03:40 39.85297 -104.68402 5382 ft 19 kts 178°
2026-05-06 03:41 39.85212 -104.68459 5377 ft 14 kts 252°
2026-05-06 03:41 39.85206 -104.68596 5377 ft 17 kts 269°
2026-05-06 03:41 39.85202 -104.68774 5365 ft 22 kts 268°
2026-05-06 03:41 39.85197 -104.68985 5357 ft 21 kts 269°
2026-05-06 03:42 39.85197 -104.69167 5350 ft 19 kts 270°
2026-05-06 03:42 39.85199 -104.69339 5343 ft 18 kts 272°
2026-05-06 03:42 39.85202 -104.69512 5342 ft 18 kts 270°
2026-05-06 03:42 39.85224 -104.69643 5341 ft 14 kts 324°
2026-05-06 03:43 39.85316 -104.69656 5343 ft 16 kts 360°
2026-05-06 03:43 39.85590 -104.69654 5341 ft 70 kts
2026-05-06 03:43 39.86276 -104.69646 5338 ft 126 kts
2026-05-06 03:43 39.87316 -104.69649 5343 ft 170 kts 360°
2026-05-06 03:44 39.88548 -104.69610 5757 ft 181 kts
2026-05-06 03:44 39.89862 -104.69539 6269 ft 202 kts
2026-05-06 03:44 39.91316 -104.69517 6869 ft 213 kts 352°
2026-05-06 03:44 39.92589 -104.70431 7533 ft 219 kts 310°
2026-05-06 03:45 39.93153 -104.72309 7911 ft 235 kts 269°
2026-05-06 03:45 39.92664 -104.74376 8255 ft 251 kts 231°
2026-05-06 03:45 39.91238 -104.75749 8662 ft 265 kts 197°
2026-05-06 03:45 39.89368 -104.75940 9141 ft 278 kts 171°
2026-05-06 03:46 39.87427 -104.75889 9935 ft 280 kts 180°
2026-05-06 03:46 39.85458 -104.76164 10447 ft 293 kts 197°
2026-05-06 03:46 39.83683 -104.77542 10763 ft 310 kts 226°
2026-05-06 03:46 39.82304 -104.79802 11048 ft 328 kts 234°
2026-05-06 03:47 39.80941 -104.82273 11291 ft 345 kts 235°
2026-05-06 03:47 39.79735 -104.85022 11809 ft 351 kts 243°
2026-05-06 03:47 39.78591 -104.87828 12565 ft 352 kts 243°
2026-05-06 03:47 39.77488 -104.90682 13285 ft 353 kts 251°
2026-05-06 03:48 39.76809 -104.93731 14031 ft 353 kts 255°
2026-05-06 03:48 39.76137 -104.96812 14666 ft 354 kts 255°
2026-05-06 03:48 39.75461 -104.99888 15344 ft 356 kts 255°
2026-05-06 03:48 39.74716 -105.02976 15981 ft 359 kts 249°
2026-05-06 03:49 39.73709 -105.05957 16612 ft 361 kts 249°
2026-05-06 03:49 39.72717 -105.08956 17215 ft 363 kts 249°
2026-05-06 03:49 39.71731 -105.11977 17817 ft 365 kts 249°
2026-05-06 03:49 39.70745 -105.15022 18397 ft 366 kts 249°
2026-05-06 03:50 39.69759 -105.18077 18865 ft 369 kts 249°
2026-05-06 03:50 39.68759 -105.21174 19316 ft 372 kts 249°
2026-05-06 03:50 39.67767 -105.24247 19778 ft 375 kts 249°
2026-05-06 03:50 39.66736 -105.27412 20213 ft 378 kts 249°
2026-05-06 03:51 39.65696 -105.30563 20645 ft 381 kts 249°
2026-05-06 03:51 39.64663 -105.33694 21057 ft 384 kts 249°
2026-05-06 03:51 39.63594 -105.36933 21483 ft 387 kts 249°
2026-05-06 03:51 39.62537 -105.40139 21888 ft 390 kts 249°
2026-05-06 03:52 39.61462 -105.43397 22306 ft 393 kts 249°
2026-05-06 03:52 39.60382 -105.46667 22704 ft 396 kts 249°
2026-05-06 03:52 39.59290 -105.49956 23103 ft 399 kts 249°
2026-05-06 03:52 39.58188 -105.53270 23486 ft 402 kts 249°
2026-05-06 03:53 39.57075 -105.56611 23802 ft 405 kts 249°
2026-05-06 03:53 39.55954 -105.59976 24150 ft 407 kts 249°
2026-05-06 03:53 39.54948 -105.63398 24485 ft 408 kts 252°
2026-05-06 03:53 39.54017 -105.66839 24806 ft 411 kts 252°
2026-05-06 03:54 39.53056 -105.70331 25148 ft 414 kts 252°
2026-05-06 03:54 39.52081 -105.73848 25474 ft 416 kts 252°
2026-05-06 03:54 39.51095 -105.77384 25785 ft 418 kts 252°
2026-05-06 03:54 39.50104 -105.80934 26090 ft 421 kts 252°
2026-05-06 03:55 39.49103 -105.84511 26387 ft 424 kts 252°
2026-05-06 03:55 39.48137 -105.87961 26674 ft 426 kts 252°
2026-05-06 03:55 39.47124 -105.91573 26976 ft 428 kts 252°
2026-05-06 03:55 39.46104 -105.95206 27256 ft 431 kts 252°
2026-05-06 03:56 39.45076 -105.98859 27561 ft 433 kts 252°
2026-05-06 03:56 39.44042 -106.02530 27878 ft 436 kts 252°
2026-05-06 03:56 39.43001 -106.06222 28175 ft 438 kts 252°
2026-05-06 03:56 39.41950 -106.09943 28453 ft 441 kts 252°
2026-05-06 03:57 39.40895 -106.13673 28743 ft 443 kts 252°
2026-05-06 03:57 39.39819 -106.17477 29030 ft 446 kts 252°
2026-05-06 03:57 39.38769 -106.21198 29388 ft 447 kts 252°
2026-05-06 03:57 39.37705 -106.24965 29782 ft 446 kts 252°
2026-05-06 03:58 39.36640 -106.28727 30136 ft 447 kts 252°
2026-05-06 03:58 39.35571 -106.32502 30446 ft 447 kts 252°
2026-05-06 03:58 39.34514 -106.36225 30736 ft 447 kts 252°
2026-05-06 03:58 39.33447 -106.39981 31011 ft 447 kts 252°
2026-05-06 03:59 39.32374 -106.43751 31310 ft 446 kts 252°
2026-05-06 03:59 39.31304 -106.47504 31586 ft 446 kts 252°
2026-05-06 03:59 39.30230 -106.51268 31868 ft 447 kts 252°
2026-05-06 03:59 39.29155 -106.55033 31945 ft 447 kts 252°
2026-05-06 04:00 39.27000 -106.62557 31891 ft 446 kts 252°
2026-05-06 04:00 39.24831 -106.70075 31938 ft 449 kts 250°
2026-05-06 04:01 39.23274 -106.73569 31959 ft 452 kts 234°
2026-05-06 04:01 39.21336 -106.76776 31953 ft 455 kts 235°
2026-05-06 04:01 39.17452 -106.83237 31958 ft 456 kts 234°
2026-05-06 04:02 39.13518 -106.89677 31968 ft 458 kts 234°
2026-05-06 04:02 39.09574 -106.96111 31930 ft 459 kts 234°
2026-05-06 04:03 39.05611 -107.02562 31901 ft 460 kts 234°
2026-05-06 04:03 39.01641 -107.09012 31865 ft 461 kts 234°
2026-05-06 04:04 38.97654 -107.15475 31817 ft 461 kts 234°
2026-05-06 04:04 38.93661 -107.21936 31671 ft 462 kts 234°
2026-05-06 04:05 38.89647 -107.28419 31674 ft 465 kts 233°
2026-05-06 04:05 38.85625 -107.34898 31657 ft 464 kts 233°
2026-05-06 04:06 38.81598 -107.41376 31645 ft 465 kts 233°
2026-05-06 04:06 38.77569 -107.47841 31627 ft 464 kts 233°
2026-05-06 04:07 38.73536 -107.54303 31622 ft 465 kts 233°
2026-05-06 04:07 38.69503 -107.60750 31657 ft 464 kts 233°
2026-05-06 04:08 38.65481 -107.67165 31691 ft 465 kts 233°
2026-05-06 04:08 38.61435 -107.73607 31739 ft 465 kts 233°
2026-05-06 04:09 38.57386 -107.80041 31784 ft 465 kts 233°
2026-05-06 04:09 38.53324 -107.86482 31791 ft 465 kts 233°
2026-05-06 04:10 38.49261 -107.92913 31786 ft 465 kts 233°
2026-05-06 04:10 38.45198 -107.99330 31784 ft 464 kts 233°
2026-05-06 04:11 38.41134 -108.05736 31732 ft 465 kts 233°
2026-05-06 04:11 38.37070 -108.12130 31703 ft 464 kts 233°
2026-05-06 04:12 38.33005 -108.18512 31651 ft 464 kts 233°
2026-05-06 04:12 38.28942 -108.24879 31735 ft 463 kts 233°
2026-05-06 04:13 38.24873 -108.31244 31727 ft 463 kts 233°
2026-05-06 04:13 38.20813 -108.37580 31728 ft 462 kts 232°
2026-05-06 04:14 38.16748 -108.43912 31720 ft 462 kts 232°
2026-05-06 04:14 38.12686 -108.50229 31723 ft 461 kts 232°
2026-05-06 04:15 38.08623 -108.56533 31716 ft 461 kts 232°
2026-05-06 04:15 38.04565 -108.62818 31721 ft 460 kts 232°
2026-05-06 04:16 38.00501 -108.69101 31714 ft 461 kts 232°
2026-05-06 04:16 37.96443 -108.75361 31723 ft 459 kts 232°
2026-05-06 04:17 37.92385 -108.81610 31721 ft 460 kts 232°
2026-05-06 04:17 37.89011 -108.86796 31732 ft 458 kts 232°
2026-05-06 04:18 37.84295 -108.94031 31734 ft 458 kts 232°
2026-05-06 04:18 37.80901 -108.99230 31736 ft 457 kts 232°
2026-05-06 04:19 37.76196 -109.06421 31733 ft 457 kts 232°
2026-05-06 04:19 37.72812 -109.11583 31764 ft 455 kts 232°
2026-05-06 04:20 37.68768 -109.17742 31801 ft 455 kts 232°
2026-05-06 04:20 37.64733 -109.23874 31849 ft 453 kts 231°
2026-05-06 04:21 37.60700 -109.29993 31883 ft 453 kts 231°
2026-05-06 04:21 37.56678 -109.36083 31925 ft 451 kts 231°
2026-05-06 04:22 37.52655 -109.42165 31926 ft 452 kts 231°
2026-05-06 04:23 37.46636 -109.51243 31912 ft 450 kts 231°
2026-05-06 04:23 37.42624 -109.57279 31869 ft 448 kts 231°
2026-05-06 04:24 37.38624 -109.63287 31827 ft 448 kts 231°
2026-05-06 04:24 37.34650 -109.69243 31785 ft 447 kts 231°
2026-05-06 04:25 37.30633 -109.75254 31746 ft 446 kts 231°
2026-05-06 04:25 37.26642 -109.81215 31737 ft 445 kts 231°
2026-05-06 04:26 37.22682 -109.87119 31740 ft 445 kts 231°
2026-05-06 04:26 37.18696 -109.93053 31741 ft 444 kts 231°
2026-05-06 04:27 37.14716 -109.98965 31740 ft 444 kts 231°
2026-05-06 04:27 37.10737 -110.04867 31745 ft 442 kts 231°
2026-05-06 04:28 37.06765 -110.10746 31744 ft 442 kts 231°
2026-05-06 04:28 37.02791 -110.16618 31748 ft 441 kts 230°
2026-05-06 04:29 36.98828 -110.22465 31753 ft 440 kts 230°
2026-05-06 04:29 36.94866 -110.28299 31757 ft 439 kts 230°
2026-05-06 04:30 36.90914 -110.34107 31771 ft 439 kts 230°
2026-05-06 04:30 36.86963 -110.39904 31774 ft 437 kts 230°
2026-05-06 04:31 36.83025 -110.45673 31783 ft 437 kts 230°
2026-05-06 04:31 36.79085 -110.51434 31802 ft 435 kts 230°
2026-05-06 04:32 36.75186 -110.57127 31804 ft 434 kts 230°
2026-05-06 04:32 36.71263 -110.62843 31806 ft 432 kts 230°
2026-05-06 04:33 36.67359 -110.68522 31815 ft 432 kts 230°
2026-05-06 04:33 36.63458 -110.74187 31813 ft 430 kts 230°
2026-05-06 04:34 36.59564 -110.79832 31815 ft 429 kts 230°
2026-05-06 04:34 36.55682 -110.85451 31818 ft 427 kts 230°
2026-05-06 04:35 36.51818 -110.91035 31816 ft 426 kts 229°
2026-05-06 04:35 36.47947 -110.96618 31814 ft 424 kts 229°
2026-05-06 04:36 36.44099 -111.02160 31817 ft 423 kts 229°
2026-05-06 04:36 36.40257 -111.07685 31807 ft 421 kts 229°
2026-05-06 04:37 36.36438 -111.13165 31820 ft 420 kts 229°
2026-05-06 04:37 36.32624 -111.18631 31811 ft 418 kts 229°
2026-05-06 04:38 36.28815 -111.24080 31820 ft 417 kts 229°
2026-05-06 04:38 36.25016 -111.29506 31810 ft 415 kts 229°
2026-05-06 04:39 36.21229 -111.34908 31828 ft 415 kts 229°
2026-05-06 04:39 36.17455 -111.40281 31823 ft 413 kts 229°
2026-05-06 04:40 36.13689 -111.45636 31830 ft 412 kts 229°
2026-05-06 04:40 36.09930 -111.50973 31832 ft 410 kts 229°
2026-05-06 04:41 36.06187 -111.56280 31842 ft 410 kts 229°
2026-05-06 04:41 36.02441 -111.61583 31850 ft 408 kts 229°
2026-05-06 04:42 35.98708 -111.66860 31864 ft 408 kts 229°
2026-05-06 04:42 35.94981 -111.72120 31893 ft 406 kts 229°
2026-05-06 04:43 35.91260 -111.77362 31923 ft 405 kts 229°
2026-05-06 04:43 35.87544 -111.82590 31948 ft 406 kts 229°
2026-05-06 04:44 35.83867 -111.87881 31962 ft 406 kts 236°
2026-05-06 04:44 35.81158 -111.93978 31985 ft 405 kts 239°
2026-05-06 04:45 35.78376 -112.00023 31986 ft 405 kts 239°
2026-05-06 04:45 35.75601 -112.06041 31982 ft 403 kts 238°
2026-05-06 04:46 35.72819 -112.12037 31984 ft 403 kts 238°
2026-05-06 04:46 35.70041 -112.17968 31972 ft 401 kts 238°
2026-05-06 04:47 35.67257 -112.23907 31966 ft 401 kts 238°
2026-05-06 04:47 35.64476 -112.29828 31953 ft 399 kts 238°
2026-05-06 04:48 35.61697 -112.35735 31943 ft 399 kts 238°
2026-05-06 04:48 35.58943 -112.41638 31944 ft 397 kts 238°
2026-05-06 04:49 35.56202 -112.47521 31939 ft 397 kts 238°
2026-05-06 04:49 35.53460 -112.53395 31924 ft 395 kts 238°
2026-05-06 04:50 35.50726 -112.59240 31921 ft 395 kts 238°
2026-05-06 04:50 35.47991 -112.65079 31916 ft 394 kts 238°
2026-05-06 04:51 35.45262 -112.70893 31917 ft 394 kts 238°
2026-05-06 04:51 35.42530 -112.76706 31912 ft 392 kts 238°
2026-05-06 04:52 35.39810 -112.82483 31905 ft 392 kts 238°
2026-05-06 04:52 35.37083 -112.88264 31911 ft 391 kts 238°
2026-05-06 04:53 35.34370 -112.94008 31909 ft 390 kts 238°
2026-05-06 04:53 35.31648 -112.99760 31901 ft 389 kts 238°
2026-05-06 04:54 35.28934 -113.05484 31902 ft 389 kts 238°
2026-05-06 04:54 35.26219 -113.11206 31897 ft 388 kts 238°
2026-05-06 04:55 35.23507 -113.16907 31897 ft 388 kts 238°
2026-05-06 04:55 35.20789 -113.22612 31889 ft 387 kts 238°
2026-05-06 04:56 35.18080 -113.28292 31896 ft 388 kts 238°
2026-05-06 04:56 35.15362 -113.33979 31888 ft 386 kts 238°
2026-05-06 04:57 35.12655 -113.39634 31888 ft 385 kts 238°
2026-05-06 04:57 35.09947 -113.45283 31882 ft 384 kts 238°
2026-05-06 04:58 35.07244 -113.50911 31878 ft 384 kts 238°
2026-05-06 04:58 35.04559 -113.56494 31878 ft 383 kts 238°
2026-05-06 04:59 35.01846 -113.62125 31885 ft 383 kts 238°
2026-05-06 04:59 34.99150 -113.67714 31887 ft 381 kts 238°
2026-05-06 05:00 34.96480 -113.73237 31893 ft 381 kts 238°
2026-05-06 05:00 34.93791 -113.78793 31880 ft 379 kts 238°
2026-05-06 05:01 34.91108 -113.84325 31872 ft 380 kts 238°
2026-05-06 05:01 34.88428 -113.89847 31875 ft 378 kts 238°
2026-05-06 05:02 34.85689 -113.95307 31869 ft 377 kts 236°
2026-05-06 05:02 34.82906 -114.00707 31864 ft 376 kts 236°
2026-05-06 05:03 34.80137 -114.06086 31869 ft 375 kts 236°
2026-05-06 05:03 34.77377 -114.11440 31880 ft 372 kts 236°
2026-05-06 05:04 34.74626 -114.16768 31896 ft 372 kts 236°
2026-05-06 05:04 34.71876 -114.22086 31918 ft 370 kts 236°
2026-05-06 05:05 34.69606 -114.26471 31931 ft 369 kts 236°
2026-05-06 05:05 34.66870 -114.31748 31951 ft 370 kts 236°
2026-05-06 05:06 34.64126 -114.37033 31963 ft 370 kts 236°
2026-05-06 05:06 34.60906 -114.41878 31957 ft 370 kts 229°
2026-05-06 05:07 34.57518 -114.46584 31951 ft 371 kts 229°
2026-05-06 05:07 34.54113 -114.51293 31943 ft 372 kts 229°
2026-05-06 05:08 34.50698 -114.56008 31924 ft 372 kts 229°
2026-05-06 05:08 34.47279 -114.60722 31913 ft 373 kts 229°
2026-05-06 05:09 34.43847 -114.65446 31897 ft 374 kts 229°
2026-05-06 05:09 34.40407 -114.70176 31887 ft 375 kts 229°
2026-05-06 05:10 34.36957 -114.74913 31882 ft 375 kts 228°
2026-05-06 05:10 34.33500 -114.79649 31878 ft 377 kts 228°
2026-05-06 05:11 34.30025 -114.84400 31887 ft 377 kts 228°
2026-05-06 05:11 34.26547 -114.89149 31884 ft 378 kts 228°
2026-05-06 05:12 34.23057 -114.93909 31897 ft 379 kts 228°
2026-05-06 05:12 34.19561 -114.98670 31898 ft 380 kts 228°
2026-05-06 05:13 34.16053 -115.03441 31897 ft 380 kts 228°
2026-05-06 05:13 34.12535 -115.08219 31902 ft 381 kts 228°
2026-05-06 05:14 34.09004 -115.13009 31905 ft 382 kts 228°
2026-05-06 05:14 34.05471 -115.17793 31908 ft 383 kts 228°
2026-05-06 05:15 34.01954 -115.22551 31913 ft 382 kts 228°
2026-05-06 05:15 33.98414 -115.27342 31919 ft 384 kts 228°
2026-05-06 05:16 33.94868 -115.32152 31922 ft 384 kts 228°
2026-05-06 05:16 33.91320 -115.36956 31924 ft 385 kts 228°
2026-05-06 05:17 33.87761 -115.41768 31915 ft 385 kts 228°
2026-05-06 05:17 33.84196 -115.46583 31933 ft 386 kts 228°
2026-05-06 05:18 33.80623 -115.51402 31914 ft 387 kts 228°
2026-05-06 05:18 33.77035 -115.56234 31922 ft 387 kts 228°
2026-05-06 05:19 33.73446 -115.61060 31932 ft 387 kts 228°
2026-05-06 05:19 33.69839 -115.65878 31935 ft 389 kts 227°
2026-05-06 05:20 33.66200 -115.70694 31911 ft 388 kts 227°
2026-05-06 05:20 33.64403 -115.73070 31357 ft 383 kts 227°
2026-05-06 05:20 33.62611 -115.75444 30582 ft 385 kts 228°
2026-05-06 05:20 33.61007 -115.78030 29678 ft 389 kts 233°
2026-05-06 05:21 33.59459 -115.80695 28859 ft 389 kts 233°
2026-05-06 05:21 33.57921 -115.83351 28191 ft 386 kts 234°
2026-05-06 05:21 33.56378 -115.86021 27624 ft 397 kts 234°
2026-05-06 05:21 33.54793 -115.88762 27049 ft 402 kts 234°
2026-05-06 05:22 33.53192 -115.91531 26491 ft 405 kts 234°
2026-05-06 05:22 33.51616 -115.94256 25890 ft 405 kts 234°
2026-05-06 05:22 33.49980 -115.97080 25434 ft 406 kts 234°
2026-05-06 05:22 33.48367 -115.99866 25052 ft 407 kts 234°
2026-05-06 05:23 33.46758 -116.02641 24601 ft 406 kts 234°
2026-05-06 05:23 33.45151 -116.05411 24122 ft 405 kts 234°
2026-05-06 05:23 33.41955 -116.10912 23062 ft 404 kts 234°
2026-05-06 05:24 33.40351 -116.13670 22542 ft 403 kts 234°
2026-05-06 05:24 33.38754 -116.16414 22058 ft 402 kts 234°
2026-05-06 05:24 33.37162 -116.19148 21542 ft 401 kts 234°
2026-05-06 05:24 33.35572 -116.21877 21003 ft 398 kts 234°
2026-05-06 05:25 33.33785 -116.24384 20381 ft 395 kts 220°
2026-05-06 05:25 33.31484 -116.26145 19893 ft 392 kts 208°
2026-05-06 05:25 33.29074 -116.27649 19447 ft 392 kts 208°
2026-05-06 05:25 33.26641 -116.29127 18984 ft 392 kts 207°
2026-05-06 05:26 33.24207 -116.30581 18525 ft 390 kts 207°
2026-05-06 05:26 33.21789 -116.32009 18027 ft 387 kts 207°
2026-05-06 05:26 33.19383 -116.33422 17531 ft 383 kts 207°
2026-05-06 05:26 33.17007 -116.34814 17065 ft 378 kts 207°
2026-05-06 05:27 33.14659 -116.36187 16615 ft 373 kts 207°
2026-05-06 05:27 33.12342 -116.37541 16174 ft 369 kts 207°
2026-05-06 05:27 33.10047 -116.38882 15729 ft 365 kts 207°
2026-05-06 05:27 33.07777 -116.40207 15295 ft 362 kts 207°
2026-05-06 05:28 33.05539 -116.41513 14872 ft 352 kts 207°
2026-05-06 05:28 33.03370 -116.42777 14449 ft 342 kts 207°
2026-05-06 05:28 33.01269 -116.44003 14054 ft 332 kts 208°
2026-05-06 05:28 32.99405 -116.45542 13556 ft 323 kts 223°
2026-05-06 05:29 32.97732 -116.47263 13141 ft 314 kts 221°
2026-05-06 05:29 32.96085 -116.48931 12714 ft 309 kts 221°
2026-05-06 05:29 32.94449 -116.50584 12073 ft 309 kts 221°
2026-05-06 05:29 32.92809 -116.52240 11441 ft 309 kts 221°
2026-05-06 05:30 32.91177 -116.53886 10965 ft 304 kts 221°
2026-05-06 05:30 32.89585 -116.55490 10580 ft 295 kts 221°
2026-05-06 05:30 32.88046 -116.57041 10218 ft 286 kts 221°
2026-05-06 05:30 32.86543 -116.58555 9768 ft 280 kts 221°
2026-05-06 05:31 32.85065 -116.60043 9402 ft 278 kts 221°
2026-05-06 05:31 32.83592 -116.61527 9040 ft 278 kts 222°
2026-05-06 05:31 32.82111 -116.63018 8696 ft 278 kts 222°
2026-05-06 05:31 32.80677 -116.64461 8415 ft 278 kts 222°
2026-05-06 05:32 32.79435 -116.65711 8145 ft 278 kts 222°
2026-05-06 05:32 32.78708 -116.66442 7938 ft 280 kts 222°
2026-05-06 05:32 32.77761 -116.67434 7676 ft 280 kts 228°
2026-05-06 05:32 32.76692 -116.69337 7354 ft 276 kts 242°
2026-05-06 05:33 32.75749 -116.71302 7079 ft 273 kts 242°
2026-05-06 05:33 32.74812 -116.73258 6771 ft 271 kts 242°
2026-05-06 05:33 32.73894 -116.75186 6498 ft 267 kts 242°
2026-05-06 05:33 32.72988 -116.77091 6258 ft 259 kts 242°
2026-05-06 05:34 32.72135 -116.78889 5999 ft 248 kts 242°
2026-05-06 05:34 32.71297 -116.80654 5753 ft 237 kts 242°
2026-05-06 05:34 32.70572 -116.82334 5514 ft 227 kts 250°
2026-05-06 05:34 32.70030 -116.84080 5301 ft 220 kts 251°
2026-05-06 05:35 32.69509 -116.85739 5095 ft 214 kts 251°
2026-05-06 05:35 32.68986 -116.87378 4881 ft 205 kts 250°
2026-05-06 05:35 32.68819 -116.87922 4803 ft 202 kts 252°
2026-05-06 05:35 32.68372 -116.89457 4613 ft 192 kts 252°
2026-05-06 05:36 32.67942 -116.90932 4413 ft 186 kts 252°
2026-05-06 05:36 32.67519 -116.92376 4227 ft 185 kts 252°
2026-05-06 05:36 32.67401 -116.93859 4027 ft 178 kts 279°
2026-05-06 05:36 32.67652 -116.95277 3846 ft 175 kts 283°
2026-05-06 05:37 32.67950 -116.96670 3646 ft 174 kts 284°
2026-05-06 05:37 32.68272 -116.98062 3468 ft 173 kts 285°
2026-05-06 05:37 32.68601 -116.99434 3267 ft 173 kts 285°
2026-05-06 05:37 32.68932 -117.00803 3025 ft 172 kts 285°
2026-05-06 05:38 32.69260 -117.02152 2829 ft 163 kts 285°
2026-05-06 05:38 32.69564 -117.03400 2592 ft 154 kts 285°
2026-05-06 05:38 32.69857 -117.04606 2410 ft 151 kts 285°
2026-05-06 05:38 32.70087 -117.05545 2248 ft 150 kts 285°
2026-05-06 05:39 32.70376 -117.06733 2053 ft 149 kts 285°
2026-05-06 05:39 32.70663 -117.07910 1854 ft 149 kts 285°
2026-05-06 05:39 32.70952 -117.09096 1651 ft 149 kts 285°
2026-05-06 05:39 32.71242 -117.10280 1448 ft 149 kts 285°
2026-05-06 05:40 32.71530 -117.11460 1245 ft 149 kts 286°
2026-05-06 05:40 32.71816 -117.12637 1022 ft 148 kts 285°
2026-05-06 05:40 32.72104 -117.13811 819 ft 148 kts 285°
2026-05-06 05:40 32.72398 -117.14983 612 ft 147 kts 287°
2026-05-06 05:41 32.72688 -117.16138 404 ft 145 kts 284°
2026-05-06 05:41 32.72951 -117.17293 182 ft 146 kts 284°
2026-05-06 05:41 32.73218 -117.18426 33 ft 136 kts 285°
2026-05-06 05:41 32.73420 -117.19250 27 ft 87 kts 287°
2026-05-06 05:42 32.73529 -117.19707 27 ft 39 kts 280°
2026-05-06 05:42 32.73466 -117.19837 26 ft 18 kts 168°
2026-05-06 05:42 32.73448 -117.19824 25 ft 1 kts 124°
2026-05-06 05:42 32.73434 -117.19798 29 ft 9 kts 122°
2026-05-06 05:43 32.73352 -117.19717 29 ft 19 kts 143°
2026-05-06 05:43 32.73314 -117.19682 27 ft 1 kts 141°